SCP
0 -0 -1 -1 -1 -1 -1 -0 -0 -0 -0 -0 -0 -0 -0 -0 -0 -0 -0 -0 0 0 0 0 0 0 0 0 -0 0 0 0 0 0 0 0 0 0 0 0 0 0 0
-0 -0 -1 -1 -1 -1 -0 -0 -0 -0 -0 -0 -0 -0 -0 -0 -0 -0 -0 0 0 0 0 0 0 0 0 0 0 0 -0 -0 -0 0 0 0 0 0 0 0 0 0 0
-0 0 -0 -1 -1 -1 -0 -0 -0 -0 -0 -0 -0 -0 -0 -0 -0 -0 0 0 0 0 0 0 0 0 0 0 0 0 -0 -0 0 -0 0 0 0 0 0 0 0 0 0
-0 0 0 -0 -0 -1 -0 -0 -0 -0 -0 -0 -0 -0 -0 -0 -0 0 0 0 0 0 0 0 0 0 0 0 0 -0 -0 -0 -0 0 0 0 0 0 0 0 0 0 0
0 0 0 -0 -0 -0 -0 -0 -0 -0 -0 -0 -0 -0 -0 0 0 0 0 0 0 0 0 0 0 0 0 0 0 0 0 0 -0 -0 -0 0 0 0 0 0 0 0 0
0 0 0 -0 -0 -0 -0 -0 -0 -0 -0 -0 -0 -0 -0 0 0 0 0 -0 0 0 0 0 0 0 0 0 0 -0 -0 0 0 0 0 0 0 0 0 0 0 0 0
1 1 1 0 0 0 -0 -0 -0 -0 0 -0 -0 -0 -0 0 0 0 0 -0 -0 -0 0 0 -0 -0 -0 -0 -0 -0 -0 -0 0 0 0 0 0 -0 -0 0 0 0 0
1 1 1 1 1 0 0 0 0 0 0 0 0 0 0 -0 -0 -0 -0 -0 -0 -0 0 -0 -0 -0 -0 -0 -0 -0 -0 -0 0 0 -0 0 -0 -0 -0 0 0 0 0
1 1 1 1 1 1 1 1 0 0 0 0 0 0 0 0 -0 -0 -0 -0 -0 -0 -0 -0 -0 -0 -0 -0 -0 -0 -0 -0 0 0 -0 0 -0 -0 0 0 0 0 0
2 1 1 2 2 2 1 1 1 1 0 0 0 0 0 0 0 -0 0 0 0 0 0 0 0 -0 -0 -0 -0 -0 -0 -0 -0 0 -0 0 -0 -0 -0 0 0 0 0
3 1 1 1 1 1 1 1 1 1 1 1 1 1 0 0 0 -0 0 0 0 0 0 0 0 0 0 -0 -0 -0 0 0 -0 -0 0 0 -0 0 -0 0 0 0 0
1 1 1 1 1 1 1 1 1 1 1 1 1 1 1 0 0 0 0 0 0 0 0 0 0 0 0 0 -0 -0 0 0 -0 -0 0 -0 0 0 0 0 0 0 0
0 2 1 1 1 0 1 2 1 1 1 1 1 1 1 0 0 0 0 0 0 0 0 0 0 0 0 0 0 0 0 0 0 0 0 0 0 0 0 0 0 0 0
0 1 3 1 1 -0 0 2 2 1 1 1 1 1 1 1 0 0 0 0 0 0 0 0 0 0 0 0 0 0 0 0 0 0 0 0 0 0 0 0 0 0 0
0 1 3 4 2 0 1 2 1 1 2 2 2 1 2 1 1 0 0 0 0 0 0 0 0 0 0 0 0 0 0 0 0 0 0 0 0 0 0 0 0 0 0
0 -0 2 2 1 0 1 2 1 1 1 1 2 1 2 1 1 1 0 0 0 0 0 0 0 0 0 0 0 0 0 0 0 0 0 0 0 0 0 0 0 0 0
0 0 -1 -0 0 0 0 3 3 1 1 1 1 1 1 1 1 1 1 1 1 0 0 0 0 0 0 0 0 0 0 0 0 0 0 0 0 0 0 0 0 1 0
0 0 0 0 1 1 2 1 3 4 2 2 1 1 1 1 1 1 1 1 1 0 0 0 0 0 0 0 0 0 0 0 0 0 0 1 1 1 0 1 1 1 1
0 0 0 0 0 1 3 4 3 3 5 4 2 2 2 2 2 2 2 1 1 0 0 0 0 0 0 0 0 0 0 1 1 1 1 1 1 1 1 1 1 1 1
0 0 0 0 0 0 0 3 5 5 4 5 5 4 2 2 2 3 3 2 1 1 0 0 1 0 0 0 0 0 0 0 1 1 1 1 1 1 1 1 1 1 1
0 0 0 0 0 0 0 0 4 4 4 4 4 4 2 4 2 2 5 3 2 1 1 1 0 1 0 1 1 0 0 1 1 1 2 2 1 1 1 1 1 1 1
0 0 0 0 0 1 0 1 2 2 3 4 4 3 3 3 4 3 3 5 3 3 1 1 1 1 1 0 1 1 1 1 2 2 3 2 1 1 1 2 3 2 2
0 0 0 0 0 0 0 0 0 0 2 3 2 3 3 4 4 5 4 4 4 3 2 1 2 1 1 1 1 1 2 1 2 4 2 2 2 1 1 1 2 2 1
0 0 0 0 0 0 0 0 0 -0 0 0 2 2 2 3 3 3 5 4 4 4 3 2 2 2 1 1 2 1 4 2 2 3 3 2 1 1 1 1 1 1 1
0 0 0 0 0 0 0 0 0 0 0 0 0 1 2 3 3 3 4 4 5 4 3 2 1 3 2 1 1 3 4 3 3 2 2 2 1 1 2 2 1 0 0
0 0 0 0 0 0 0 0 0 -0 0 -0 0 0 1 3 3 3 4 4 4 4 3 3 3 2 3 2 2 2 3 3 2 2 1 1 1 0 1 0 0 0 0
Wind_Speed_500mb
53 53 52 46 47 48 44 39 37 36 37 36 33 32 29 24 26 31 34 35 35 32 31 28 25 22 22 23 23 24 25 28 32 34 41 38 35 29 25 25 23 20 19
45 52 52 49 48 48 44 39 37 36 37 36 32 29 27 26 30 34 35 35 33 31 27 25 25 25 25 23 22 23 25 29 34 33 30 31 34 34 29 21 19 19 17
41 51 52 49 50 50 47 40 39 37 36 35 31 28 26 29 33 36 36 35 33 28 24 22 21 22 21 19 19 22 28 32 33 30 24 21 24 27 27 22 18 17 16
34 49 53 50 49 48 46 40 40 37 35 33 30 27 27 30 33 35 34 32 29 24 21 19 19 19 18 16 19 23 25 27 32 30 28 15 13 19 23 19 17 18 14
38 48 52 51 49 47 44 39 38 34 34 32 29 25 26 30 31 32 31 28 24 20 19 18 18 17 17 15 17 20 24 26 25 25 22 18 13 15 21 18 15 15 16
38 46 50 50 48 48 44 39 38 35 32 31 29 25 24 27 29 29 28 25 21 19 18 16 16 15 15 14 14 16 18 17 18 18 17 8 16 13 18 16 16 14 12
41 43 47 48 47 45 43 41 37 35 33 31 29 27 24 26 27 28 27 24 21 19 17 15 14 15 14 12 10 9 10 10 11 16 13 8 19 18 18 15 14 14 13
19 35 43 44 45 43 41 38 36 35 34 34 30 29 26 26 27 27 26 25 23 22 19 18 16 15 13 11 9 6 4 6 13 8 6 2 17 17 20 15 13 14 12
12 17 26 40 43 42 40 39 36 35 35 35 36 31 27 26 27 27 26 25 24 23 22 20 18 16 14 11 9 6 3 2 4 7 1 7 18 21 20 13 11 11 11
23 16 14 31 42 44 43 41 39 37 38 38 38 37 32 27 26 27 27 26 26 25 24 22 20 17 15 12 9 6 2 1 9 10 4 5 15 24 21 13 10 10 10
33 25 18 10 39 43 43 42 40 38 39 40 43 43 41 36 30 30 30 29 29 29 28 26 24 21 17 14 10 6 5 3 14 12 11 3 13 24 16 12 10 9 9
38 34 29 22 19 38 42 43 43 43 45 45 49 51 47 42 36 33 33 35 35 34 32 29 26 23 19 16 14 9 5 7 11 13 7 4 18 19 16 11 7 7 8
31 38 32 36 25 19 26 42 49 46 48 50 52 54 51 50 46 43 41 42 41 40 37 34 31 27 23 21 21 24 13 9 8 7 5 10 16 18 16 12 10 8 8
22 47 60 34 28 19 13 30 37 43 52 55 58 59 59 57 55 51 49 47 47 46 42 40 36 32 29 27 28 27 21 20 20 15 15 24 24 22 16 12 10 10 9
29 11 38 59 48 43 30 43 49 49 50 50 62 63 63 64 62 58 56 53 50 48 49 47 43 39 37 34 33 31 25 29 30 26 28 23 26 25 21 16 12 10 12
33 12 27 35 38 33 61 57 48 49 58 50 50 66 68 68 69 70 67 63 58 57 50 54 50 47 44 40 37 34 27 32 33 37 37 37 34 29 25 19 18 15 15
28 22 11 12 29 43 66 59 48 52 56 53 50 48 52 66 70 73 75 74 70 65 55 53 58 53 55 49 43 38 35 27 29 39 38 41 42 36 31 27 23 23 19
16 12 9 17 6 27 53 65 63 65 59 53 54 56 58 55 62 72 77 81 77 72 70 65 64 62 60 59 50 46 42 38 31 32 38 45 47 46 42 38 34 31 27
22 14 23 26 10 7 31 55 62 63 64 67 67 63 64 71 69 68 79 84 84 82 72 72 73 70 69 67 58 52 47 46 41 34 37 35 28 38 45 41 41 40 39
32 27 28 36 39 39 28 37 51 58 67 72 76 77 77 80 77 77 78 85 85 87 86 76 78 74 76 72 62 55 49 48 49 45 44 40 44 42 44 49 49 53 50
33 37 38 33 37 30 38 32 44 59 63 69 72 80 79 74 81 81 85 85 91 90 94 88 86 88 87 82 62 57 54 52 56 57 59 55 53 47 55 56 51 52 51
16 9 3 3 6 10 15 21 27 41 63 72 73 74 77 89 94 88 90 92 96 99 100 100 101 97 94 84 72 60 58 65 51 66 63 60 57 59 56 52 51 50 51
20 18 22 23 25 30 23 17 22 30 44 57 75 78 76 81 90 103 102 102 100 102 107 105 105 100 99 88 80 63 26 36 64 63 66 68 60 54 51 52 52 53 57
23 16 15 22 28 34 38 40 43 42 47 58 66 77 80 84 89 96 103 107 103 101 107 115 106 107 100 94 84 87 60 33 39 39 63 67 57 49 50 56 59 57 47
13 15 16 23 26 36 40 44 48 56 60 63 71 80 80 88 93 97 106 109 110 107 110 111 116 124 115 100 97 95 95 68 45 30 42 61 57 55 54 59 59 55 51
25 26 29 36 42 40 44 47 55 61 69 72 77 83 86 89 96 99 100 106 114 111 109 112 114 116 113 109 106 98 100 93 87 69 48 48 55 56 61 61 60 51 56
Wind_Direction_500mb
161 154 155 155 154 152 151 147 144 142 143 142 143 141 139 133 134 136 136 136 134 129 126 125 121 122 124 121 120 108 98 93 86 82 71 62 52 45 47 54 55 61 61
163 159 158 157 156 154 152 148 146 145 145 144 142 142 140 132 136 139 138 137 135 131 130 124 122 124 124 120 109 102 95 90 85 72 61 59 55 39 37 43 51 55 60
161 163 160 160 158 156 155 151 150 150 149 147 144 145 141 135 137 140 140 139 137 136 131 122 121 122 121 115 107 103 103 91 76 62 41 57 46 43 26 30 43 53 50
170 167 160 161 159 158 159 155 155 155 154 152 148 147 143 140 140 141 141 140 139 136 129 126 127 129 126 119 110 104 111 99 88 71 56 42 29 19 13 20 26 43 49
175 170 162 162 161 161 162 160 162 160 160 158 154 150 149 148 149 149 148 148 145 141 136 137 137 137 133 129 116 110 110 107 100 90 68 20 350 349 1 8 20 29 37
179 171 165 164 164 164 165 166 168 167 168 168 163 159 156 157 158 159 158 158 158 153 150 150 147 146 142 137 132 123 122 122 102 91 85 330 341 338 348 1 5 7 17
171 172 170 167 168 169 171 172 174 176 174 177 176 171 166 168 169 171 171 171 170 166 163 161 164 162 160 159 151 143 133 133 133 115 98 337 326 337 345 351 1 355 346
145 161 173 173 174 175 177 180 182 186 185 183 189 187 181 179 181 182 182 182 180 179 176 175 179 180 179 177 180 186 168 126 152 129 119 116 337 339 336 337 350 355 340
175 162 176 182 181 182 184 187 192 194 196 195 193 198 198 194 194 192 192 193 192 189 188 189 191 192 192 196 198 210 216 121 124 144 272 21 330 339 333 323 331 348 350
199 189 189 197 191 188 190 194 197 200 200 203 203 201 205 211 207 207 204 204 204 201 201 201 201 201 204 204 205 211 256 133 125 151 196 330 305 320 322 310 310 325 345
198 206 206 209 204 198 197 199 201 203 204 204 207 207 210 211 216 217 215 214 215 213 210 209 210 210 211 211 208 181 38 272 207 169 210 236 297 303 305 301 301 314 330
194 209 216 219 199 211 206 207 207 205 206 208 207 208 211 217 221 225 227 223 221 220 219 218 218 219 219 218 214 203 103 50 194 214 210 277 284 299 300 298 297 296 300
190 205 258 208 192 184 223 216 217 215 213 211 212 213 216 220 222 226 226 229 226 223 223 225 224 224 224 224 224 219 196 200 238 221 232 253 275 294 287 291 289 291 297
262 225 207 198 159 162 242 235 222 226 225 223 219 217 219 223 227 228 228 226 228 228 227 226 227 229 230 230 230 235 223 222 223 199 237 254 263 280 271 277 287 298 296
299 249 206 200 209 256 208 245 231 234 237 243 232 228 223 225 227 229 231 230 229 229 227 228 229 229 231 233 231 238 242 245 246 222 240 240 241 262 261 253 249 279 279
274 337 211 233 226 245 217 228 238 239 241 244 240 234 236 230 227 225 228 229 231 228 228 228 228 229 230 230 233 235 234 235 228 215 237 241 247 254 258 253 252 253 263
278 257 92 206 225 224 212 225 240 240 237 245 250 241 238 241 235 227 224 228 229 227 222 226 223 227 230 229 230 232 233 234 242 225 217 230 238 246 252 255 252 246 246
245 207 184 107 120 224 225 216 220 232 239 243 249 251 248 248 245 234 228 227 231 227 227 227 221 218 227 230 230 226 230 232 230 232 229 238 245 249 246 251 253 249 240
278 272 259 266 277 155 228 240 236 232 241 244 243 245 249 250 248 242 234 229 230 227 226 227 221 221 221 224 227 228 226 228 240 237 236 243 258 246 245 250 249 249 240
271 271 276 283 287 282 274 245 251 246 241 244 246 241 245 244 241 243 244 237 232 231 225 223 224 224 228 228 226 230 222 227 230 230 232 237 241 246 250 259 255 246 237
233 257 277 282 285 281 281 282 263 259 256 250 250 248 242 249 249 242 242 242 237 234 233 224 225 225 224 231 231 231 226 227 231 227 232 237 240 250 253 251 254 249 237
86 82 140 229 303 318 326 313 292 282 273 265 262 260 252 246 247 246 244 245 244 239 235 232 228 230 233 233 228 225 233 229 236 232 228 234 248 257 254 249 255 239 234
24 1 347 338 325 314 311 312 302 287 285 283 269 264 256 253 248 247 248 247 244 242 239 235 232 230 234 232 223 218 219 227 229 229 231 242 247 248 242 238 238 233 239
16 5 349 337 323 316 315 312 310 303 291 287 290 280 267 259 254 250 249 252 249 245 241 237 234 233 230 227 225 221 224 224 222 225 235 239 247 247 236 233 240 237 246
352 351 324 327 325 326 323 315 312 307 306 295 282 287 282 267 257 254 251 250 253 248 243 238 238 232 227 229 227 219 221 221 219 222 214 227 237 244 244 238 240 241 251
327 324 323 305 304 310 315 311 305 303 307 309 313 281 279 277 267 259 251 249 251 250 248 243 236 233 229 226 229 224 221 215 224 228 229 231 240 250 246 241 243 247 270
Wind_Speed_850mb
53 53 52 46 47 48 44 39 37 36 37 36 33 32 29 24 26 31 34 35 35 32 31 28 25 22 22 23 23 24 25 28 32 34 41 38 35 29 25 25 23 20 19
45 52 52 49 48 48 44 39 37 36 37 36 32 29 27 26 30 34 35 35 33 31 27 25 25 25 25 23 22 23 25 29 34 33 30 31 34 34 29 21 19 19 17
41 51 52 49 50 50 47 40 39 37 36 35 31 28 26 29 33 36 36 35 33 28 24 22 21 22 21 19 19 22 28 32 33 30 24 21 24 27 27 22 18 17 16
34 49 53 50 49 48 46 40 40 37 35 33 30 27 27 30 33 35 34 32 29 24 21 19 19 19 18 16 19 23 25 27 32 30 28 15 13 19 23 19 17 18 14
38 48 52 51 49 47 44 39 38 34 34 32 29 25 26 30 31 32 31 28 24 20 19 18 18 17 17 15 17 20 24 26 25 25 22 18 13 15 21 18 15 15 16
38 46 50 50 48 48 44 39 38 35 32 31 29 25 24 27 29 29 28 25 21 19 18 16 16 15 15 14 14 16 18 17 18 18 17 8 16 13 18 16 16 14 12
41 43 47 48 47 45 43 41 37 35 33 31 29 27 24 26 27 28 27 24 21 19 17 15 14 15 14 12 10 9 10 10 11 16 13 8 19 18 18 15 14 14 13
19 35 43 44 45 43 41 38 36 35 34 34 30 29 26 26 27 27 26 25 23 22 19 18 16 15 13 11 9 6 4 6 13 8 6 2 17 17 20 15 13 14 12
12 17 26 40 43 42 40 39 36 35 35 35 36 31 27 26 27 27 26 25 24 23 22 20 18 16 14 11 9 6 3 2 4 7 1 7 18 21 20 13 11 11 11
23 16 14 31 42 44 43 41 39 37 38 38 38 37 32 27 26 27 27 26 26 25 24 22 20 17 15 12 9 6 2 1 9 10 4 5 15 24 21 13 10 10 10
33 25 18 10 39 43 43 42 40 38 39 40 43 43 41 36 30 30 30 29 29 29 28 26 24 21 17 14 10 6 5 3 14 12 11 3 13 24 16 12 10 9 9
38 34 29 22 19 38 42 43 43 43 45 45 49 51 47 42 36 33 33 35 35 34 32 29 26 23 19 16 14 9 5 7 11 13 7 4 18 19 16 11 7 7 8
31 38 32 36 25 19 26 42 49 46 48 50 52 54 51 50 46 43 41 42 41 40 37 34 31 27 23 21 21 24 13 9 8 7 5 10 16 18 16 12 10 8 8
22 47 60 34 28 19 13 30 37 43 52 55 58 59 59 57 55 51 49 47 47 46 42 40 36 32 29 27 28 27 21 20 20 15 15 24 24 22 16 12 10 10 9
29 11 38 59 48 43 30 43 49 49 50 50 62 63 63 64 62 58 56 53 50 48 49 47 43 39 37 34 33 31 25 29 30 26 28 23 26 25 21 16 12 10 12
33 12 27 35 38 33 61 57 48 49 58 50 50 66 68 68 69 70 67 63 58 57 50 54 50 47 44 40 37 34 27 32 33 37 37 37 34 29 25 19 18 15 15
28 22 11 12 29 43 66 59 48 52 56 53 50 48 52 66 70 73 75 74 70 65 55 53 58 53 55 49 43 38 35 27 29 39 38 41 42 36 31 27 23 23 19
16 12 9 17 6 27 53 65 63 65 59 53 54 56 58 55 62 72 77 81 77 72 70 65 64 62 60 59 50 46 42 38 31 32 38 45 47 46 42 38 34 31 27
22 14 23 26 10 7 31 55 62 63 64 67 67 63 64 71 69 68 79 84 84 82 72 72 73 70 69 67 58 52 47 46 41 34 37 35 28 38 45 41 41 40 39
32 27 28 36 39 39 28 37 51 58 67 72 76 77 77 80 77 77 78 85 85 87 86 76 78 74 76 72 62 55 49 48 49 45 44 40 44 42 44 49 49 53 50
33 37 38 33 37 30 38 32 44 59 63 69 72 80 79 74 81 81 85 85 91 90 94 88 86 88 87 82 62 57 54 52 56 57 59 55 53 47 55 56 51 52 51
16 9 3 3 6 10 15 21 27 41 63 72 73 74 77 89 94 88 90 92 96 99 100 100 101 97 94 84 72 60 58 65 51 66 63 60 57 59 56 52 51 50 51
20 18 22 23 25 30 23 17 22 30 44 57 75 78 76 81 90 103 102 102 100 102 107 105 105 100 99 88 80 63 26 36 64 63 66 68 60 54 51 52 52 53 57
23 16 15 22 28 34 38 40 43 42 47 58 66 77 80 84 89 96 103 107 103 101 107 115 106 107 100 94 84 87 60 33 39 39 63 67 57 49 50 56 59 57 47
13 15 16 23 26 36 40 44 48 56 60 63 71 80 80 88 93 97 106 109 110 107 110 111 116 124 115 100 97 95 95 68 45 30 42 61 57 55 54 59 59 55 51
25 26 29 36 42 40 44 47 55 61 69 72 77 83 86 89 96 99 100 106 114 111 109 112 114 116 113 109 106 98 100 93 87 69 48 48 55 56 61 61 60 51 56
Wind_Direction_850mb
161 154 155 155 154 152 151 147 144 142 143 142 143 141 139 133 134 136 136 136 134 129 126 125 121 122 124 121 120 108 98 93 86 82 71 62 52 45 47 54 55 61 61
163 159 158 157 156 154 152 148 146 145 145 144 142 142 140 132 136 139 138 137 135 131 130 124 122 124 124 120 109 102 95 90 85 72 61 59 55 39 37 43 51 55 60
161 163 160 160 158 156 155 151 150 150 149 147 144 145 141 135 137 140 140 139 137 136 131 122 121 122 121 115 107 103 103 91 76 62 41 57 46 43 26 30 43 53 50
170 167 160 161 159 158 159 155 155 155 154 152 148 147 143 140 140 141 141 140 139 136 129 126 127 129 126 119 110 104 111 99 88 71 56 42 29 19 13 20 26 43 49
175 170 162 162 161 161 162 160 162 160 160 158 154 150 149 148 149 149 148 148 145 141 136 137 137 137 133 129 116 110 110 107 100 90 68 20 350 349 1 8 20 29 37
179 171 165 164 164 164 165 166 168 167 168 168 163 159 156 157 158 159 158 158 158 153 150 150 147 146 142 137 132 123 122 122 102 91 85 330 341 338 348 1 5 7 17
171 172 170 167 168 169 171 172 174 176 174 177 176 171 166 168 169 171 171 171 170 166 163 161 164 162 160 159 151 143 133 133 133 115 98 337 326 337 345 351 1 355 346
145 161 173 173 174 175 177 180 182 186 185 183 189 187 181 179 181 182 182 182 180 179 176 175 179 180 179 177 180 186 168 126 152 129 119 116 337 339 336 337 350 355 340
175 162 176 182 181 182 184 187 192 194 196 195 193 198 198 194 194 192 192 193 192 189 188 189 191 192 192 196 198 210 216 121 124 144 272 21 330 339 333 323 331 348 350
199 189 189 197 191 188 190 194 197 200 200 203 203 201 205 211 207 207 204 204 204 201 201 201 201 201 204 204 205 211 256 133 125 151 196 330 305 320 322 310 310 325 345
198 206 206 209 204 198 197 199 201 203 204 204 207 207 210 211 216 217 215 214 215 213 210 209 210 210 211 211 208 181 38 272 207 169 210 236 297 303 305 301 301 314 330
194 209 216 219 199 211 206 207 207 205 206 208 207 208 211 217 221 225 227 223 221 220 219 218 218 219 219 218 214 203 103 50 194 214 210 277 284 299 300 298 297 296 300
190 205 258 208 192 184 223 216 217 215 213 211 212 213 216 220 222 226 226 229 226 223 223 225 224 224 224 224 224 219 196 200 238 221 232 253 275 294 287 291 289 291 297
262 225 207 198 159 162 242 235 222 226 225 223 219 217 219 223 227 228 228 226 228 228 227 226 227 229 230 230 230 235 223 222 223 199 237 254 263 280 271 277 287 298 296
299 249 206 200 209 256 208 245 231 234 237 243 232 228 223 225 227 229 231 230 229 229 227 228 229 229 231 233 231 238 242 245 246 222 240 240 241 262 261 253 249 279 279
274 337 211 233 226 245 217 228 238 239 241 244 240 234 236 230 227 225 228 229 231 228 228 228 228 229 230 230 233 235 234 235 228 215 237 241 247 254 258 253 252 253 263
278 257 92 206 225 224 212 225 240 240 237 245 250 241 238 241 235 227 224 228 229 227 222 226 223 227 230 229 230 232 233 234 242 225 217 230 238 246 252 255 252 246 246
245 207 184 107 120 224 225 216 220 232 239 243 249 251 248 248 245 234 228 227 231 227 227 227 221 218 227 230 230 226 230 232 230 232 229 238 245 249 246 251 253 249 240
278 272 259 266 277 155 228 240 236 232 241 244 243 245 249 250 248 242 234 229 230 227 226 227 221 221 221 224 227 228 226 228 240 237 236 243 258 246 245 250 249 249 240
271 271 276 283 287 282 274 245 251 246 241 244 246 241 245 244 241 243 244 237 232 231 225 223 224 224 228 228 226 230 222 227 230 230 232 237 241 246 250 259 255 246 237
233 257 277 282 285 281 281 282 263 259 256 250 250 248 242 249 249 242 242 242 237 234 233 224 225 225 224 231 231 231 226 227 231 227 232 237 240 250 253 251 254 249 237
86 82 140 229 303 318 326 313 292 282 273 265 262 260 252 246 247 246 244 245 244 239 235 232 228 230 233 233 228 225 233 229 236 232 228 234 248 257 254 249 255 239 234
24 1 347 338 325 314 311 312 302 287 285 283 269 264 256 253 248 247 248 247 244 242 239 235 232 230 234 232 223 218 219 227 229 229 231 242 247 248 242 238 238 233 239
16 5 349 337 323 316 315 312 310 303 291 287 290 280 267 259 254 250 249 252 249 245 241 237 234 233 230 227 225 221 224 224 222 225 235 239 247 247 236 233 240 237 246
352 351 324 327 325 326 323 315 312 307 306 295 282 287 282 267 257 254 251 250 253 248 243 238 238 232 227 229 227 219 221 221 219 222 214 227 237 244 244 238 240 241 251
327 324 323 305 304 310 315 311 305 303 307 309 313 281 279 277 267 259 251 249 251 250 248 243 236 233 229 226 229 224 221 215 224 228 229 231 240 250 246 241 243 247 270